THURAYA-4

Last updated on Thu Aug 13 2026 00:03:03 GMT+0000 (Coordinated Universal Time)

1 62483U 25001A 26224.58084816 .00000122 00000+0 00000+0 0 9990 2 62483 0.0197 89.7663 0000166 296.6464 188.0089 1.00272270 4741
UTC large
Height (km)
Speed (km/s)
/
Latitude / Longitude
Inclination (degrees)
Orbital Period (minutes)
Azimuth
Elevation
Range (km)
Doppler Factor

Next 0 passes for location: London (51.5072 / 0.1276)

No passes found over London.
THURAYA-4